TimePDT,TemperatureF,Dew PointF,Humidity,Sea Level PressureIn,VisibilityMPH,Wind Direction,Wind SpeedMPH,Gust SpeedMPH,PrecipitationIn,Events,Conditions,WindDirDegrees,DateUTC
12:15 AM,55.4,53.6,94,29.97,10.0,West,6.9,-,N/A,,Overcast,260,2013-08-09 07:15:00
12:35 AM,55.4,53.6,94,29.97,10.0,Calm,Calm,-,N/A,,Overcast,0,2013-08-09 07:35:00
12:55 AM,55.4,53.6,94,29.97,10.0,WSW,5.8,-,N/A,,Overcast,250,2013-08-09 07:55:00
1:15 AM,55.4,53.6,94,29.96,10.0,Calm,Calm,-,N/A,,Overcast,0,2013-08-09 08:15:00
1:35 AM,55.4,53.6,94,29.96,10.0,East,3.5,-,N/A,,Overcast,80,2013-08-09 08:35:00
1:55 AM,55.4,53.6,94,29.96,10.0,East,3.5,-,N/A,,Overcast,90,2013-08-09 08:55:00
2:15 AM,55.4,53.6,94,29.96,10.0,ENE,4.6,-,N/A,,Overcast,60,2013-08-09 09:15:00
2:35 AM,55.4,53.6,94,29.95,10.0,Calm,Calm,-,N/A,,Overcast,0,2013-08-09 09:35:00
2:55 AM,55.4,55.4,100,29.95,10.0,Calm,Calm,-,N/A,,Overcast,0,2013-08-09 09:55:00
3:15 AM,55.4,53.6,94,29.95,10.0,West,4.6,-,N/A,,Overcast,260,2013-08-09 10:15:00
3:35 AM,55.4,55.4,100,29.95,10.0,WSW,3.5,-,N/A,,Overcast,250,2013-08-09 10:35:00
3:55 AM,55.4,53.6,94,29.95,10.0,SW,6.9,-,N/A,,Overcast,230,2013-08-09 10:55:00
4:15 AM,55.4,53.6,94,29.94,10.0,WSW,5.8,-,N/A,,Overcast,240,2013-08-09 11:15:00
4:35 AM,55.4,53.6,94,29.94,10.0,SW,6.9,-,N/A,,Mostly Cloudy,230,2013-08-09 11:35:00
4:55 AM,55.4,53.6,94,29.94,10.0,West,3.5,-,N/A,,Mostly Cloudy,270,2013-08-09 11:55:00
5:15 AM,55.4,53.6,94,29.94,10.0,SW,8.1,-,N/A,,Overcast,220,2013-08-09 12:15:00
5:35 AM,55.4,53.6,94,29.94,10.0,SW,8.1,-,N/A,,Overcast,230,2013-08-09 12:35:00
5:55 AM,55.4,53.6,94,29.94,10.0,SW,6.9,-,N/A,,Mostly Cloudy,230,2013-08-09 12:55:00
6:15 AM,55.4,53.6,94,29.94,10.0,Calm,Calm,-,N/A,,Overcast,0,2013-08-09 13:15:00
6:35 AM,55.4,53.6,94,29.94,10.0,South,3.5,-,N/A,,Overcast,190,2013-08-09 13:35:00
6:55 AM,55.4,53.6,94,29.95,10.0,West,4.6,-,N/A,,Overcast,280,2013-08-09 13:55:00
7:15 AM,55.4,53.6,94,29.95,10.0,ENE,3.5,-,N/A,,Overcast,60,2013-08-09 14:15:00
7:35 AM,55.4,53.6,94,29.95,10.0,ENE,3.5,-,N/A,,Overcast,70,2013-08-09 14:35:00
7:55 AM,55.4,53.6,94,29.96,10.0,Calm,Calm,-,N/A,,Overcast,0,2013-08-09 14:55:00
8:15 AM,55.4,53.6,94,29.96,10.0,SW,5.8,-,N/A,,Overcast,220,2013-08-09 15:15:00
8:35 AM,55.4,53.6,94,29.96,10.0,SSW,4.6,-,N/A,,Overcast,210,2013-08-09 15:35:00
8:55 AM,57.2,53.6,88,29.96,10.0,SSW,4.6,-,N/A,,Overcast,200,2013-08-09 15:55:00
9:15 AM,57.2,53.6,88,29.96,10.0,SW,5.8,-,N/A,,Overcast,220,2013-08-09 16:15:00
9:35 AM,57.2,53.6,88,29.97,10.0,WSW,5.8,-,N/A,,Overcast,240,2013-08-09 16:35:00
9:55 AM,59.0,53.6,82,29.96,10.0,ENE,3.5,-,N/A,,Overcast,70,2013-08-09 16:55:00
10:15 AM,59.0,53.6,82,29.97,10.0,East,3.5,-,N/A,,Overcast,80,2013-08-09 17:15:00
10:35 AM,62.6,53.6,72,29.96,10.0,South,4.6,-,N/A,,Mostly Cloudy,190,2013-08-09 17:35:00
10:55 AM,64.4,53.6,68,29.96,10.0,NNW,5.8,-,N/A,,Clear,340,2013-08-09 17:55:00
11:15 AM,64.4,53.6,68,29.97,10.0,NNE,3.5,-,N/A,,Clear,20,2013-08-09 18:15:00
11:35 AM,66.2,53.6,64,29.96,10.0,SE,5.8,-,N/A,,Clear,130,2013-08-09 18:35:00
11:55 AM,68.0,55.4,64,29.96,10.0,WNW,4.6,-,N/A,,Clear,290,2013-08-09 18:55:00
12:15 PM,68.0,53.6,60,29.96,-9999.0,SSW,9.2,-,N/A,,Clear,200,2013-08-09 19:15:00
12:35 PM,68.0,55.4,64,29.96,-9999.0,SW,6.9,-,N/A,,Clear,230,2013-08-09 19:35:00
12:55 PM,71.6,53.6,53,29.96,-9999.0,SW,9.2,-,N/A,,Clear,230,2013-08-09 19:55:00
1:15 PM,71.6,53.6,53,29.95,-9999.0,SSW,8.1,-,N/A,,Clear,200,2013-08-09 20:15:00
1:35 PM,73.4,53.6,50,29.95,-9999.0,SW,10.4,-,N/A,,Clear,220,2013-08-09 20:35:00
1:55 PM,73.4,55.4,53,29.94,-9999.0,SSW,10.4,-,N/A,,Clear,210,2013-08-09 20:55:00
2:15 PM,75.2,55.4,50,29.94,-9999.0,SW,11.5,-,N/A,,Clear,230,2013-08-09 21:15:00
2:35 PM,75.2,55.4,50,29.94,-9999.0,WSW,13.8,19.6,N/A,,Clear,250,2013-08-09 21:35:00
2:55 PM,73.4,55.4,53,29.94,-9999.0,WSW,15.0,19.6,N/A,,Clear,250,2013-08-09 21:55:00
3:15 PM,73.4,55.4,53,29.94,-9999.0,WSW,16.1,-,N/A,,Clear,250,2013-08-09 22:15:00
3:35 PM,73.4,53.6,50,29.94,-9999.0,WSW,13.8,-,N/A,,Clear,250,2013-08-09 22:35:00
3:55 PM,73.4,53.6,50,29.93,-9999.0,WSW,12.7,-,N/A,,Clear,250,2013-08-09 22:55:00
4:15 PM,73.4,55.4,53,29.93,-9999.0,WSW,11.5,17.3,N/A,,Clear,240,2013-08-09 23:15:00
4:35 PM,71.6,55.4,57,29.93,-9999.0,WSW,12.7,21.9,N/A,,Clear,240,2013-08-09 23:35:00
4:55 PM,71.6,55.4,57,29.94,-9999.0,West,10.4,17.3,N/A,,Clear,270,2013-08-09 23:55:00
5:15 PM,71.6,55.4,57,29.94,-9999.0,WSW,6.9,-,N/A,,Clear,240,2013-08-10 00:15:00
5:35 PM,68.0,55.4,64,29.94,-9999.0,NNW,11.5,-,N/A,,Clear,330,2013-08-10 00:35:00
5:55 PM,66.2,55.4,68,29.95,-9999.0,NNW,5.8,-,N/A,,Clear,330,2013-08-10 00:55:00
6:15 PM,64.4,55.4,73,29.95,10.0,NNW,10.4,-,N/A,,Clear,340,2013-08-10 01:15:00
6:35 PM,64.4,55.4,73,29.95,10.0,North,9.2,-,N/A,,Clear,350,2013-08-10 01:35:00
6:55 PM,62.6,55.4,77,29.95,10.0,NNW,12.7,16.1,N/A,,Clear,340,2013-08-10 01:55:00
7:15 PM,62.6,55.4,77,29.96,10.0,NW,6.9,-,N/A,,Clear,320,2013-08-10 02:15:00
7:35 PM,59.0,55.4,88,29.97,10.0,NNW,8.1,-,N/A,,Clear,340,2013-08-10 02:35:00
7:55 PM,59.0,55.4,88,29.97,10.0,NNW,9.2,-,N/A,,Clear,330,2013-08-10 02:55:00
8:15 PM,57.2,55.4,94,29.97,10.0,NNW,6.9,-,N/A,,Clear,330,2013-08-10 03:15:00
8:35 PM,57.2,55.4,94,29.98,10.0,North,5.8,-,N/A,,Partly Cloudy,350,2013-08-10 03:35:00
8:55 PM,57.2,55.4,94,29.98,10.0,Calm,Calm,-,N/A,,Mostly Cloudy,0,2013-08-10 03:55:00
9:15 PM,57.2,55.4,94,29.99,10.0,Calm,Calm,-,N/A,,Overcast,0,2013-08-10 04:15:00
9:35 PM,57.2,55.4,94,29.99,10.0,Calm,Calm,-,N/A,,Overcast,0,2013-08-10 04:35:00
9:55 PM,57.2,55.4,94,30.00,10.0,Calm,Calm,-,N/A,,Overcast,0,2013-08-10 04:55:00
10:15 PM,57.2,55.4,94,30.00,10.0,ESE,3.5,-,N/A,,Mostly Cloudy,110,2013-08-10 05:15:00
10:35 PM,55.4,55.4,100,30.00,10.0,ESE,3.5,-,N/A,,Partly Cloudy,110,2013-08-10 05:35:00
10:55 PM,55.4,55.4,100,30.00,10.0,NE,3.5,-,N/A,,Clear,50,2013-08-10 05:55:00
11:15 PM,57.2,55.4,94,30.00,10.0,East,5.8,-,N/A,,Mostly Cloudy,100,2013-08-10 06:15:00
11:35 PM,55.4,55.4,100,30.00,10.0,ENE,3.5,-,N/A,,Scattered Clouds,70,2013-08-10 06:35:00
11:55 PM,57.2,55.4,94,30.00,10.0,East,3.5,-,N/A,,Mostly Cloudy,100,2013-08-10 06:55:00